Year,Month,Day,Hour,Minute,Value (Times are PST for temperature in C)
2008,08,25,15,02,18.20
2008,08,25,15,03,18.20
2008,08,25,15,04,18.30
2008,08,25,15,05,18.30
2008,08,25,15,06,18.40
2008,08,25,15,07,18.30
2008,08,25,15,08,18.40
2008,08,25,15,09,18.40
2008,08,25,15,10,18.40
2008,08,25,15,11,18.40
2008,08,25,15,12,18.40
2008,08,25,15,13,18.40
2008,08,25,15,14,18.40
2008,08,25,15,15,18.30
2008,08,25,15,16,18.30
2008,08,25,15,17,18.30
2008,08,25,15,18,18.10
2008,08,25,15,19,18.00
2008,08,25,15,20,17.90
2008,08,25,15,21,17.80
2008,08,25,15,22,17.70
2008,08,25,15,23,17.60
2008,08,25,15,24,17.70
2008,08,25,15,25,17.70
2008,08,25,15,26,17.80
2008,08,25,15,27,17.80
2008,08,25,15,28,17.80
2008,08,25,15,29,17.80
2008,08,25,15,30,17.80
2008,08,25,15,31,17.80
2008,08,25,15,32,17.80
2008,08,25,15,33,17.80
2008,08,25,15,34,17.80
2008,08,25,15,35,17.80
2008,08,25,15,36,17.80
2008,08,25,15,37,17.90
2008,08,25,15,38,17.80
2008,08,25,15,39,17.80
2008,08,25,15,40,17.80
2008,08,25,15,41,17.80
2008,08,25,15,42,17.70
2008,08,25,15,43,17.70
2008,08,25,15,44,17.70
2008,08,25,15,45,17.80
2008,08,25,15,46,17.70
2008,08,25,15,47,17.70
2008,08,25,15,48,17.70
2008,08,25,15,49,17.70
2008,08,25,15,50,17.70
2008,08,25,15,51,17.80
2008,08,25,15,52,17.80
2008,08,25,15,53,17.90
2008,08,25,15,54,17.90
2008,08,25,15,55,17.90
2008,08,25,15,56,18.10
2008,08,25,15,57,18.20
2008,08,25,15,58,18.20
2008,08,25,15,59,18.30
2008,08,25,16,00,18.40
2008,08,25,16,01,18.40
2008,08,25,16,02,18.40
2008,08,25,16,03,18.40
2008,08,25,16,04,18.30
2008,08,25,16,05,18.20
2008,08,25,16,06,18.30
2008,08,25,16,07,18.30
2008,08,25,16,08,18.20
2008,08,25,16,09,18.20
2008,08,25,16,10,18.20
2008,08,25,16,11,18.20
2008,08,25,16,12,18.20
2008,08,25,16,13,18.30
2008,08,25,16,14,18.30
2008,08,25,16,15,18.30
2008,08,25,16,16,18.40
2008,08,25,16,17,18.40
2008,08,25,16,18,18.40
2008,08,25,16,19,18.50
2008,08,25,16,20,18.50
2008,08,25,16,21,18.60
2008,08,25,16,22,18.60
2008,08,25,16,23,18.50
2008,08,25,16,24,18.50
2008,08,25,16,25,18.50
2008,08,25,16,26,18.40
2008,08,25,16,27,18.30
2008,08,25,16,28,18.30
2008,08,25,16,29,18.30
2008,08,25,16,30,18.30
2008,08,25,16,31,18.20
2008,08,25,16,32,18.20
2008,08,25,16,33,18.20
2008,08,25,16,34,18.30
2008,08,25,16,35,18.30
2008,08,25,16,36,18.20
2008,08,25,16,37,18.30
2008,08,25,16,38,18.20
2008,08,25,16,39,18.20
2008,08,25,16,40,18.10
2008,08,25,16,41,18.10
2008,08,25,16,42,18.00
2008,08,25,16,43,17.90
2008,08,25,16,44,17.90
2008,08,25,16,45,17.90
2008,08,25,16,46,17.90
2008,08,25,16,47,17.90
2008,08,25,16,48,17.90
2008,08,25,16,49,17.90
2008,08,25,16,50,17.90
2008,08,25,16,51,17.90
2008,08,25,16,52,17.90
2008,08,25,16,53,17.90
2008,08,25,16,54,17.90
2008,08,25,16,55,17.90
2008,08,25,16,56,17.90
2008,08,25,16,57,17.90
2008,08,25,16,58,17.90
2008,08,25,16,59,18.00
2008,08,25,17,00,18.10
2008,08,25,17,01,18.10
2008,08,25,17,02,18.20
2008,08,25,17,03,18.20
2008,08,25,17,04,18.20
2008,08,25,17,05,18.20
2008,08,25,17,06,18.20
2008,08,25,17,07,18.20
2008,08,25,17,08,18.20
2008,08,25,17,09,18.20
2008,08,25,17,10,18.20
2008,08,25,17,11,18.20
2008,08,25,17,12,18.20
2008,08,25,17,13,18.20
2008,08,25,17,14,18.20
2008,08,25,17,15,18.20
2008,08,25,17,16,18.20
2008,08,25,17,17,18.20
2008,08,25,17,18,18.20
2008,08,25,17,19,18.10
2008,08,25,17,20,18.10
2008,08,25,17,21,18.10
2008,08,25,17,22,18.10
2008,08,25,17,23,18.10
2008,08,25,17,24,18.10
2008,08,25,17,25,18.10
2008,08,25,17,26,18.10
2008,08,25,17,27,18.10
2008,08,25,17,28,18.10
2008,08,25,17,29,18.10
2008,08,25,17,30,18.00
2008,08,25,17,31,17.90
2008,08,25,17,32,18.00
2008,08,25,17,33,17.90
2008,08,25,17,34,17.90
2008,08,25,17,35,17.90
2008,08,25,17,36,17.90
2008,08,25,17,37,17.90
2008,08,25,17,38,17.90
2008,08,25,17,39,17.90
2008,08,25,17,40,17.90
2008,08,25,17,41,17.90
2008,08,25,17,42,17.90
2008,08,25,17,43,17.90
2008,08,25,17,44,17.80
2008,08,25,17,45,17.80
2008,08,25,17,46,17.80
2008,08,25,17,47,17.80
2008,08,25,17,48,17.80
2008,08,25,17,49,17.70
2008,08,25,17,50,17.70
2008,08,25,17,51,17.70
2008,08,25,17,52,17.80
2008,08,25,17,53,17.80
2008,08,25,17,54,17.80
2008,08,25,17,55,17.80
2008,08,25,17,56,17.90
2008,08,25,17,57,17.80
2008,08,25,17,58,17.80
2008,08,25,17,59,17.80
2008,08,25,18,00,17.80
2008,08,25,18,01,17.70
2008,08,25,18,02,17.70
2008,08,25,18,03,17.70
2008,08,25,18,04,17.70
2008,08,25,18,05,17.70
2008,08,25,18,06,17.70
2008,08,25,18,07,17.70
2008,08,25,18,08,17.60
2008,08,25,18,09,17.50
2008,08,25,18,10,17.50
2008,08,25,18,11,17.40
2008,08,25,18,12,17.30
2008,08,25,18,13,17.30
2008,08,25,18,14,17.30
2008,08,25,18,15,17.30
2008,08,25,18,16,17.30
2008,08,25,18,17,17.30
2008,08,25,18,18,17.30
2008,08,25,18,19,17.30
2008,08,25,18,20,17.30
2008,08,25,18,21,17.30
2008,08,25,18,22,17.30
2008,08,25,18,23,17.30
2008,08,25,18,24,17.30
2008,08,25,18,25,17.20
2008,08,25,18,26,17.20
2008,08,25,18,27,17.20
2008,08,25,18,28,17.20
2008,08,25,18,29,17.20
2008,08,25,18,30,17.20
2008,08,25,18,31,17.20
2008,08,25,18,32,17.20
2008,08,25,18,33,17.20
2008,08,25,18,34,17.10
2008,08,25,18,35,17.10
2008,08,25,18,36,17.10
2008,08,25,18,37,17.20
2008,08,25,18,38,17.20
2008,08,25,18,39,17.20
2008,08,25,18,40,17.10
2008,08,25,18,41,17.10
2008,08,25,18,42,17.10
2008,08,25,18,43,17.00
2008,08,25,18,44,17.00
2008,08,25,18,45,17.00
2008,08,25,18,46,17.00
2008,08,25,18,47,17.10
2008,08,25,18,48,17.10
2008,08,25,18,49,17.10
2008,08,25,18,50,17.10
2008,08,25,18,51,17.10
2008,08,25,18,52,17.10
2008,08,25,18,53,17.00
2008,08,25,18,54,17.00
2008,08,25,18,55,17.00
2008,08,25,18,56,17.00
2008,08,25,18,57,16.90
2008,08,25,18,58,16.90
2008,08,25,18,59,16.90
2008,08,25,19,00,16.80
2008,08,25,19,01,16.80
2008,08,25,19,02,16.80
2008,08,25,19,03,16.70
2008,08,25,19,04,16.70
2008,08,25,19,05,16.70
2008,08,25,19,06,16.70
2008,08,25,19,07,16.70
2008,08,25,19,08,16.60
2008,08,25,19,09,16.60
2008,08,25,19,10,16.60
2008,08,25,19,11,16.60
2008,08,25,19,12,16.60
2008,08,25,19,13,16.60
2008,08,25,19,14,16.40
2008,08,25,19,15,16.40
2008,08,25,19,16,16.40
2008,08,25,19,17,16.40
2008,08,25,19,18,16.40
2008,08,25,19,19,16.40
2008,08,25,19,20,16.40
2008,08,25,19,21,16.40
2008,08,25,19,22,16.30
2008,08,25,19,23,16.30
2008,08,25,19,24,16.30
2008,08,25,19,25,16.20
2008,08,25,19,26,16.20
2008,08,25,19,27,16.20
2008,08,25,19,28,16.10
2008,08,25,19,29,16.10
2008,08,25,19,30,16.10
2008,08,25,19,31,16.10
2008,08,25,19,32,16.10
2008,08,25,19,33,16.10
2008,08,25,19,34,16.10
2008,08,25,19,35,16.10
2008,08,25,19,36,16.10
2008,08,25,19,37,16.10
2008,08,25,19,38,16.10
2008,08,25,19,39,16.10
2008,08,25,19,40,16.00
2008,08,25,19,41,15.90
2008,08,25,19,42,15.90
2008,08,25,19,43,15.80
2008,08,25,19,44,15.80
2008,08,25,19,45,15.80
2008,08,25,19,46,15.80
2008,08,25,19,47,15.80
2008,08,25,19,48,15.80
2008,08,25,19,49,15.70
2008,08,25,19,50,15.70
2008,08,25,19,51,15.60
2008,08,25,19,52,15.60
2008,08,25,19,53,15.50
2008,08,25,19,54,15.50
2008,08,25,19,55,15.50
2008,08,25,19,56,15.50
2008,08,25,19,57,15.50
2008,08,25,19,58,15.50
2008,08,25,19,59,15.50
2008,08,25,20,00,15.50
2008,08,25,20,01,15.50
2008,08,25,20,02,15.50
2008,08,25,20,03,15.50
2008,08,25,20,04,15.50
2008,08,25,20,05,15.40
2008,08,25,20,06,15.40
2008,08,25,20,07,15.40
2008,08,25,20,08,15.40
2008,08,25,20,09,15.30
2008,08,25,20,10,15.30
2008,08,25,20,11,15.30
2008,08,25,20,12,15.30
2008,08,25,20,13,15.30
2008,08,25,20,14,15.30
2008,08,25,20,15,15.30
2008,08,25,20,16,15.30
2008,08,25,20,17,15.30
2008,08,25,20,18,15.30
2008,08,25,20,19,15.30
2008,08,25,20,20,15.30
2008,08,25,20,21,15.30
2008,08,25,20,22,15.30
2008,08,25,20,23,15.30
2008,08,25,20,24,15.30
2008,08,25,20,25,15.30
2008,08,25,20,26,15.30
2008,08,25,20,27,15.20
2008,08,25,20,28,15.20
2008,08,25,20,29,15.20
2008,08,25,20,30,15.20
2008,08,25,20,31,15.20
2008,08,25,20,32,15.20
2008,08,25,20,33,15.20
2008,08,25,20,34,15.10
2008,08,25,20,35,15.10
2008,08,25,20,36,15.10
2008,08,25,20,37,15.10
2008,08,25,20,38,15.00
2008,08,25,20,39,15.00
2008,08,25,20,40,15.00
2008,08,25,20,41,15.00
2008,08,25,20,42,14.90
2008,08,25,20,43,14.90
2008,08,25,20,44,14.90
2008,08,25,20,45,14.90
2008,08,25,20,46,14.80
2008,08,25,20,47,14.80
2008,08,25,20,48,14.80
2008,08,25,20,49,14.80
2008,08,25,20,50,14.80
2008,08,25,20,51,14.80
2008,08,25,20,52,14.80
2008,08,25,20,53,14.80
2008,08,25,20,54,14.80
2008,08,25,20,55,14.80
2008,08,25,20,56,14.80
2008,08,25,20,57,14.70
2008,08,25,20,58,14.70
2008,08,25,20,59,14.70
2008,08,25,21,00,14.70
2008,08,25,21,01,14.70
2008,08,25,21,02,14.70
2008,08,25,21,03,14.60
2008,08,25,21,04,14.60
2008,08,25,21,05,14.60
2008,08,25,21,06,14.60
2008,08,25,21,07,14.60
2008,08,25,21,08,14.60
2008,08,25,21,09,14.50
2008,08,25,21,10,14.50
2008,08,25,21,11,14.50
2008,08,25,21,12,14.50
2008,08,25,21,13,14.40
2008,08,25,21,14,14.40
2008,08,25,21,15,14.40
2008,08,25,21,16,14.30
2008,08,25,21,17,14.30
2008,08,25,21,18,14.30
2008,08,25,21,19,14.20
2008,08,25,21,20,14.20
2008,08,25,21,21,14.20
2008,08,25,21,22,14.20
2008,08,25,21,23,14.20
2008,08,25,21,24,14.20
2008,08,25,21,25,14.10
2008,08,25,21,26,14.10
2008,08,25,21,27,14.10
2008,08,25,21,28,14.10
2008,08,25,21,29,14.10
2008,08,25,21,30,14.00
2008,08,25,21,31,14.00
2008,08,25,21,32,14.00
2008,08,25,21,33,14.00
2008,08,25,21,34,14.00
2008,08,25,21,35,14.00
2008,08,25,21,36,13.90
2008,08,25,21,37,13.90
2008,08,25,21,38,13.90
2008,08,25,21,39,13.90
2008,08,25,21,40,13.90
2008,08,25,21,41,13.80
2008,08,25,21,42,13.80
2008,08,25,21,43,13.80
2008,08,25,21,44,13.80
2008,08,25,21,45,13.80
2008,08,25,21,46,13.80
2008,08,25,21,47,13.80
2008,08,25,21,48,13.80
2008,08,25,21,49,13.80
2008,08,25,21,50,13.80
2008,08,25,21,51,13.80
2008,08,25,21,52,13.70
2008,08,25,21,53,13.70
2008,08,25,21,54,13.70
2008,08,25,21,55,13.70
2008,08,25,21,56,13.70
2008,08,25,21,57,13.70
2008,08,25,21,58,13.70
2008,08,25,21,59,13.70
2008,08,25,22,00,13.70
2008,08,25,22,01,13.70
2008,08,25,22,02,13.70
2008,08,25,22,03,13.70
2008,08,25,22,04,13.70
2008,08,25,22,05,13.70
2008,08,25,22,06,13.70
2008,08,25,22,07,13.70
2008,08,25,22,08,13.70
2008,08,25,22,09,13.70
2008,08,25,22,10,13.70
2008,08,25,22,11,13.70
2008,08,25,22,12,13.70
2008,08,25,22,13,13.70
2008,08,25,22,14,13.60
2008,08,25,22,15,13.60
2008,08,25,22,16,13.60
2008,08,25,22,17,13.60
2008,08,25,22,18,13.60
2008,08,25,22,19,13.60
2008,08,25,22,20,13.60
2008,08,25,22,21,13.60
2008,08,25,22,22,13.60
2008,08,25,22,23,13.60
2008,08,25,22,24,13.60
2008,08,25,22,25,13.60
2008,08,25,22,26,13.60
2008,08,25,22,27,13.60
2008,08,25,22,28,13.60
2008,08,25,22,29,13.60
2008,08,25,22,30,13.60
2008,08,25,22,31,13.60
2008,08,25,22,32,13.60
2008,08,25,22,33,13.60
2008,08,25,22,34,13.60
2008,08,25,22,35,13.60
2008,08,25,22,36,13.60
2008,08,25,22,37,13.60
2008,08,25,22,38,13.60
2008,08,25,22,39,13.60
2008,08,25,22,40,13.60
2008,08,25,22,41,13.60
2008,08,25,22,42,13.60
2008,08,25,22,43,13.60
2008,08,25,22,44,13.60
2008,08,25,22,45,13.60
2008,08,25,22,46,13.60
2008,08,25,22,47,13.60
2008,08,25,22,48,13.60
2008,08,25,22,49,13.60
2008,08,25,22,50,13.60
2008,08,25,22,51,13.60
2008,08,25,22,52,13.60
2008,08,25,22,53,13.60
2008,08,25,22,54,13.60
2008,08,25,22,55,13.60
2008,08,25,22,56,13.60
2008,08,25,22,57,13.60
2008,08,25,22,58,13.60
2008,08,25,22,59,13.60
2008,08,25,23,00,13.60
2008,08,25,23,01,13.60
2008,08,25,23,02,13.60
2008,08,25,23,03,13.60
2008,08,25,23,04,13.60
2008,08,25,23,05,13.60
2008,08,25,23,06,13.60
2008,08,25,23,07,13.60
2008,08,25,23,08,13.60
2008,08,25,23,09,13.60
2008,08,25,23,10,13.60
2008,08,25,23,11,13.60
2008,08,25,23,12,13.60
2008,08,25,23,13,13.60
2008,08,25,23,14,13.50
2008,08,25,23,15,13.50
2008,08,25,23,16,13.50
2008,08,25,23,17,13.50
2008,08,25,23,18,13.50
2008,08,25,23,19,13.50
2008,08,25,23,20,13.50
2008,08,25,23,21,13.50
2008,08,25,23,22,13.50
2008,08,25,23,23,13.50
2008,08,25,23,24,13.50
2008,08,25,23,25,13.50
2008,08,25,23,26,13.50
2008,08,25,23,27,13.50
2008,08,25,23,28,13.50
2008,08,25,23,29,13.50
2008,08,25,23,30,13.50
2008,08,25,23,31,13.50
2008,08,25,23,32,13.50
2008,08,25,23,33,13.50
2008,08,25,23,34,13.40
2008,08,25,23,35,13.40
2008,08,25,23,36,13.40
2008,08,25,23,37,13.40
2008,08,25,23,38,13.40
2008,08,25,23,39,13.40
2008,08,25,23,40,13.40
2008,08,25,23,41,13.40
2008,08,25,23,42,13.30
2008,08,25,23,43,13.30
2008,08,25,23,44,13.30
2008,08,25,23,45,13.30
2008,08,25,23,46,13.30
2008,08,25,23,47,13.30
2008,08,25,23,48,13.30
2008,08,25,23,49,13.30
2008,08,25,23,50,13.30
2008,08,25,23,51,13.30
2008,08,25,23,52,13.30
2008,08,25,23,53,13.30
2008,08,25,23,54,13.30
2008,08,25,23,55,13.30
2008,08,25,23,56,13.30
2008,08,25,23,57,13.30
2008,08,25,23,58,13.30
2008,08,25,23,59,13.20
